This is the latest recevied weather packets stored in our database for station/object SP1BMW-13. If no packets are shown the sender has not sent any weather packets the latest 10 day(s).
| Time | Temp. | Humidity | Pressure | Rain* | Wind** | Luminosity | Snow |
|---|---|---|---|---|---|---|---|
| 1787999001 | 23.89° C | 52% | 1009.9 hPa | 0 mm | 0.89 m/s, 308° | 641 W/m² | - |
| 1787998941 | 23.89° C | 52% | 1009.9 hPa | 0 mm | 1.34 m/s, 314° | 610 W/m² | - |
| 1787998881 | 23.89° C | 52% | 1009.9 hPa | 0 mm | 0.45 m/s, 275° | 449 W/m² | - |
| 1787998821 | 23.89° C | 51% | 1009.9 hPa | 0 mm | 0.45 m/s, 117° | 202 W/m² | - |
| 1787998761 | 23.89° C | 50% | 1010.1 hPa | 0 mm | 1.34 m/s, 225° | 151 W/m² | - |
| 1787998701 | 24.44° C | 50% | 1009.8 hPa | 0 mm | 1.34 m/s, 197° | 683 W/m² | - |
| 1787998641 | 24.44° C | 49% | 1009.9 hPa | 0 mm | 0.89 m/s, 290° | 434 W/m² | - |
| 1787998581 | 24.44° C | 49% | 1009.9 hPa | 0 mm | 1.34 m/s, 189° | 486 W/m² | - |
| 1787998521 | 24.44° C | 49% | 1010 hPa | 0 mm | 1.79 m/s, 232° | 722 W/m² | - |
| 1787998461 | 24.44° C | 49% | 1009.9 hPa | 0 mm | 0.45 m/s, 334° | 723 W/m² | - |
| 1787998401 | 24.44° C | 51% | 1010 hPa | 0 mm | 1.34 m/s, 141° | 701 W/m² | - |
| 1787998341 | 24.44° C | 51% | 1010 hPa | 0 mm | 0.89 m/s, 310° | 668 W/m² | - |
| 1787998281 | 24.44° C | 49% | 1009.9 hPa | 0 mm | 1.34 m/s, 100° | 654 W/m² | - |
| 1787998221 | 24.44° C | 50% | 1010.1 hPa | 0 mm | 0.89 m/s, 132° | 647 W/m² | - |
| 1787998161 | 24.44° C | 49% | 1010.1 hPa | 0 mm | 0.89 m/s, 222° | 647 W/m² | - |
| 1787998101 | 24.44° C | 49% | 1009.9 hPa | 0 mm | 1.34 m/s, 239° | 630 W/m² | - |
| 1787998041 | 24.44° C | 49% | 1010 hPa | 0 mm | 0.89 m/s, 167° | 622 W/m² | - |
| 1787997981 | 24.44° C | 50% | 1009.9 hPa | 0 mm | 1.79 m/s, 139° | 635 W/m² | - |
| 1787997921 | 24.44° C | 50% | 1010 hPa | 0 mm | 0.89 m/s, 140° | 621 W/m² | - |
| 1787997861 | 24.44° C | 49% | 1010 hPa | 0 mm | 1.79 m/s, 241° | 615 W/m² | - |
| 1787997801 | 24.44° C | 48% | 1010 hPa | 0 mm | 2.24 m/s, 163° | 614 W/m² | - |
| 1787997741 | 24.44° C | 47% | 1010 hPa | 0 mm | 1.34 m/s, 240° | 625 W/m² | - |
| 1787997681 | 24.44° C | 48% | 1010.1 hPa | 0 mm | 2.24 m/s, 200° | 637 W/m² | - |
| 1787997621 | 24.44° C | 50% | 1010 hPa | 0 mm | 0.89 m/s, 267° | 648 W/m² | - |
| 1787997561 | 24.44° C | 49% | 1010.1 hPa | 0 mm | 2.24 m/s, 250° | 663 W/m² | - |
* Rain latest hour (hover to see other rain measurements)
** Current wind speed in m/s (hover to see current wind gust speed)